Overview Statistics Trail Chart Weather Telemetry Raw packets
 

This is the latest recevied weather packets stored in our database for station/object K0QED. If no packets are shown the sender has not sent any weather packets the latest 10 day(s).

<< 9 10 11 12 13 14 15 >>
Time Temp. Humidity Pressure Rain* Wind** Luminosity Snow
1788561001 30.56° C 27% 1023.1 hPa 0 mm - 373 W/m² -
1788560696 30° C 27% 1023.2 hPa 0 mm - 377 W/m² -
1788560390 30° C 27% 1023.4 hPa 0 mm - 412 W/m² -
1788560085 29.44° C 28% 1023.2 hPa 0 mm - 402 W/m² -
1788559780 28.89° C 28% 1023 hPa 0 mm - 387 W/m² -
1788559480 28.33° C 28% 1023.4 hPa 0 mm - 374 W/m² -
1788559175 29.44° C 28% 1023.4 hPa 0 mm - 141 W/m² -
1788558870 30° C 27% 1023.4 hPa 0 mm - 528 W/m² -
1788558566 30.56° C 27% 1023.2 hPa 0 mm - 527 W/m² -
1788558262 30° C 28% 1023.4 hPa 0 mm - 542 W/m² -
1788557961 30° C 28% 1023.2 hPa 0 mm - 543 W/m² -
1788557655 30° C 28% 1023.4 hPa 0 mm - 532 W/m² -
1788557351 30° C 27% 1023.4 hPa 0 mm - 525 W/m² -
1788557050 30° C 27% 1023.6 hPa 0 mm - 534 W/m² -
1788556746 29.44° C 27% 1023.9 hPa 0 mm - 582 W/m² -
1788556441 29.44° C 28% 1023.6 hPa 0 mm - 191 W/m² -
1788556136 29.44° C 28% 1023.6 hPa 0 mm - 560 W/m² -
1788555836 30.56° C 27% 1023.7 hPa 0 mm - 135 W/m² -
1788555532 30° C 27% 1023.6 hPa 0 mm - 575 W/m² -
1788555227 30.56° C 27% 1023.9 hPa 0 mm - 589 W/m² -
1788554924 29.44° C 27% 1023.9 hPa 0 mm - 209 W/m² -
1788554619 29.44° C 28% 1024 hPa 0 mm - 508 W/m² -
1788554316 30° C 28% 1024 hPa 0 mm - 619 W/m² -
1788554012 30.56° C 27% 1024 hPa 0 mm - 680 W/m² -
1788553707 30° C 27% 1024.1 hPa 0 mm - 706 W/m² -

* Rain latest hour (hover to see other rain measurements)
** Current wind speed in m/s (hover to see current wind gust speed)